ソーホー彗星

321P/SOHO (1997)

English version
Home page
Updated on June 14, 2015

---------------------------------------------------------------------

・ プロフィール

符号 321P/1997 J6

・ 軌道要素

Epoch 1997 Apr. 22.0 TT = JDT 2450560.5
T 1997 May 1.66326 TT                                   MPCW
q   0.0493940            (2000.0)            P               Q
n   0.25936014     Peri.  172.03990     +0.92660946     +0.36734966
a   2.4351959      Node   165.59310     -0.36033004     +0.92850527
e   0.9797166      Incl.   18.83033     -0.10750425     +0.05414972
P   3.80
From 90 observations 1997 May 1-2012 June 30.  Nongravitational parameters
     A1 = +0.00, A2 = -0.0002.

・ 光度変化

        m1 = 20 + 5 logΔ + 10 log r

---------------------------------------------------------------------

軌道要素はM.P.E.C. 2015-K01に掲載されたものです。
光度グラフはComet for Windowsで作成したものです。

---------------------------------------------------------------------

Copyright(C) Seiichi Yoshida (comet@aerith.net). All rights reserved.